User: anonymous   Login
Location: Observatoire
(46.1952°N, 5.3391°E)
Time: 05:11:27
(UTC+02:00)
Language:

CAS-4B - Orbit

View from above orbital plane
View from above orbital plane
View from above satellite
View from above satellite

Ground track
Ground track

The orbit data is extracted from the following two-line orbital elements,

1 42759U 17034B   24108.60865594  .00027642  00000-0  10692-2 0  9991
2 42759  43.0145 208.3152 0013705 305.9951  53.9629 15.25622468378143
Epoch (UTC): 17 April 2024 14:36:27
Eccentricity: 0.0013705
inclination: 43.0145°
perigee height: 479 km
apogee height: 498 km
right ascension of ascending node: 208.3152°
argument of perigee: 305.9951°
revolutions per day: 15.25622468
mean anomaly at epoch: 53.9629°
orbit number at epoch: 37814

The dashed part of the orbit path shows where the satellite is in the earth's shadow,  

DLR